User: anonymous   Login
Location: Unspecified
(0.0000°N, 0.0000°E)
Time: 02:48:16
(UTC+01:00)
Language:

Gbstr 26 Del rocket - Orbit

View from above orbital plane
View from above orbital plane
View from above satellite
View from above satellite

Ground track
Ground track

The orbit data is extracted from the following two-line orbital elements,

1 25876U 99041E   15086.03386412  .00002263  00000-0  43041-3 0  9996
2 25876 051.7642 283.2209 0536852 179.3734 180.7982 14.02997473800418
Epoch (UTC): 27 March 2015 00:48:45
Eccentricity: 0.0536852
inclination: 51.7642°
perigee height: 493 km
apogee height: 1273 km
right ascension of ascending node: 283.2209°
argument of perigee: 179.3734°
revolutions per day: 14.02997473
mean anomaly at epoch: 180.7982°
orbit number at epoch: 80041

The dashed part of the orbit path shows where the satellite is in the earth's shadow,  

DLR